Вернуться в каталог

STARLINK-2610

АктивенСвязьVLEO
NORAD 48376·PAYLOAD·🇺🇸 United States

Запущен May 4, 2021 с Cape Canaveral Space Force Station

Loading…

Ближайшие Пролёты (ближайшие 24 часа)

TLE

СвежийSource: CelesTrak SupGP

Эпоха: Sep 15, 2026, 01:59 UTC

1 48376C 21038Z   26258.08312500  .00256730  00000+0  88745-3 0  2589
2 48376  53.1484 151.8177 0004779 130.2013 237.3314 15.88636025    10

Отслеживайте STARLINK-2610 в реальном времени с AllMySat

Download on the App Store